When you browse on this site, cookies collect data to enhance your experience and personalize the content and advertising you see.
Visit our Privacy Policy to learn more. By continuing to use the site, you agree to this use of cookies and data.
  • In Czech Republic
  • List of Countries
  • For 7 days
  • Water Temperature
  • Weather Map
  • Weather Widgets
  • user-avatar
    Login

    Hourly Weather Mamou

    Today, 19 October, Saturday

    Time Temperature Precipitation Wind Pressure Humidity
    00:00 +24°C° 0 mm 0 mps 733 mmHg 80%
    01:00 +24°C° 0 mm 0 mps 733 mmHg 81%
    02:00 +26°C° 0 mm 1 mps 732 mmHg 82%
    03:00 +26°C° 0 mm 1 mps 732 mmHg 83%
    04:00 +26°C° 0 mm 1 mps 732 mmHg 84%
    05:00 +26°C° 0 mm 1 mps 732 mmHg 85%
    06:00 +26°C° 0 mm 1 mps 733 mmHg 85%
    07:00 +26°C° 0 mm 1 mps 734 mmHg 86%
    08:00 +27°C° 0.2 mm 1 mps 734 mmHg 83%
    09:00 +28°C° 0.2 mm 1 mps 734 mmHg 81%
    10:00 +28°C° 0.2 mm 1 mps 734 mmHg 78%
    11:00 +30°C° 0 mm 2 mps 733 mmHg 72%
    12:00 +31°C° 0 mm 2 mps 733 mmHg 65%
    13:00 +32°C° 0 mm 2 mps 732 mmHg 59%
    14:00 +32°C° 0.7 mm 2 mps 731 mmHg 59%
    15:00 +32°C° 0.7 mm 2 mps 731 mmHg 60%
    16:00 +32°C° 0.7 mm 2 mps 730 mmHg 60%
    17:00 +31°C° 0.1 mm 1 mps 731 mmHg 64%
    18:00 +30°C° 0.1 mm 1 mps 731 mmHg 68%
    19:00 +27°C° 0.1 mm 0 mps 732 mmHg 72%
    20:00 +27°C° 0.1 mm 0 mps 732 mmHg 73%
    21:00 +28°C° 0.1 mm 1 mps 733 mmHg 75%
    22:00 +28°C° 0.1 mm 1 mps 733 mmHg 76%
    23:00 +28°C° 0.4 mm 1 mps 733 mmHg 78%

    Tomorrow, 20 October, Sunday

    Time Temperature Precipitation Wind Pressure Humidity
    00:00 +27°C° 0.4 mm 1 mps 733 mmHg 80%
    01:00 +27°C° 0.4 mm 1 mps 733 mmHg 83%
    02:00 +27°C° 0.3 mm 1 mps 733 mmHg 85%
    03:00 +26°C° 0.3 mm 1 mps 733 mmHg 86%
    04:00 +26°C° 0.3 mm 1 mps 732 mmHg 88%
    05:00 +26°C° 0 mm 1 mps 733 mmHg 88%
    06:00 +26°C° 0 mm 1 mps 733 mmHg 88%
    07:00 +26°C° 0 mm 1 mps 734 mmHg 88%
    08:00 +27°C° 0 mm 2 mps 734 mmHg 83%
    09:00 +29°C° 0 mm 2 mps 734 mmHg 78%
    10:00 +30°C° 0 mm 2 mps 735 mmHg 73%
    11:00 +31°C° 0.2 mm 2 mps 734 mmHg 68%
    12:00 +32°C° 0.2 mm 2 mps 733 mmHg 63%
    13:00 +34°C° 0.2 mm 2 mps 732 mmHg 59%
    14:00 +33°C° 0.4 mm 1 mps 732 mmHg 58%
    15:00 +33°C° 0.4 mm 1 mps 731 mmHg 58%
    16:00 +33°C° 0.4 mm 1 mps 731 mmHg 58%
    17:00 +31°C° 1.3 mm 1 mps 731 mmHg 66%
    18:00 +30°C° 1.3 mm 1 mps 732 mmHg 74%
    19:00 +28°C° 1.3 mm 1 mps 732 mmHg 82%
    20:00 +28°C° 0.2 mm 1 mps 732 mmHg 83%
    21:00 +27°C° 0.2 mm 1 mps 733 mmHg 85%
    22:00 +27°C° 0.2 mm 1 mps 733 mmHg 86%
    23:00 +27°C° 0 mm 1 mps 733 mmHg 88%

    Day after tomorrow, 21 October, Monday

    Time Temperature Precipitation Wind Pressure Humidity
    00:00 +27°C° 0 mm 1 mps 733 mmHg 89%
    01:00 +26°C° 0 mm 1 mps 733 mmHg 91%
    02:00 +26°C° 0 mm 1 mps 733 mmHg 91%
    03:00 +26°C° 0 mm 1 mps 733 mmHg 92%
    04:00 +26°C° 0 mm 1 mps 732 mmHg 93%
    05:00 +26°C° 0.4 mm 1 mps 733 mmHg 93%
    06:00 +26°C° 0.4 mm 2 mps 734 mmHg 93%
    07:00 +26°C° 0.4 mm 2 mps 734 mmHg 92%
    08:00 +26°C° 0.6 mm 2 mps 735 mmHg 92%
    09:00 +26°C° 0.6 mm 2 mps 735 mmHg 92%
    10:00 +26°C° 0.6 mm 2 mps 736 mmHg 92%
    11:00 +26°C° 0.1 mm 2 mps 735 mmHg 90%
    12:00 +26°C° 0.1 mm 2 mps 734 mmHg 88%
    13:00 +26°C° 0.1 mm 2 mps 734 mmHg 86%
    14:00 +27°C° 0 mm 2 mps 733 mmHg 84%
    15:00 +27°C° 0 mm 1 mps 733 mmHg 82%
    16:00 +27°C° 0 mm 1 mps 732 mmHg 80%
    17:00 +27°C° 0 mm 1 mps 732 mmHg 83%
    18:00 +26°C° 0 mm 1 mps 732 mmHg 86%
    19:00 +25°C° 0 mm 1 mps 732 mmHg 90%
    20:00 +23°C° 0 mm 0 mps 733 mmHg 90%
    21:00 +23°C° 0 mm 0 mps 733 mmHg 90%
    22:00 +23°C° 0 mm 0 mps 734 mmHg 91%
    23:00 +25°C° 0 mm 1 mps 733 mmHg 91%

    22 October, Tuesday

    Time Temperature Precipitation Wind Pressure Humidity
    00:00 +24°C° 0 mm 1 mps 733 mmHg 92%
    01:00 +24°C° 0 mm 1 mps 732 mmHg 92%
    02:00 +24°C° 0 mm 1 mps 732 mmHg 93%
    03:00 +24°C° 0 mm 1 mps 732 mmHg 94%
    04:00 +23°C° 0 mm 1 mps 731 mmHg 95%
    05:00 +24°C° 0 mm 1 mps 732 mmHg 94%
    06:00 +24°C° 0 mm 1 mps 732 mmHg 93%
    07:00 +24°C° 0 mm 1 mps 733 mmHg 92%
    08:00 +26°C° 0 mm 2 mps 733 mmHg 85%
    09:00 +28°C° 0 mm 2 mps 733 mmHg 77%
    10:00 +30°C° 0 mm 3 mps 734 mmHg 69%
    11:00 +31°C° 0 mm 3 mps 733 mmHg 65%
    12:00 +33°C° 0 mm 3 mps 732 mmHg 60%
    13:00 +34°C° 0 mm 3 mps 731 mmHg 56%
    14:00 +34°C° 0 mm 3 mps 731 mmHg 57%
    15:00 +34°C° 0 mm 2 mps 730 mmHg 57%
    16:00 +34°C° 0 mm 2 mps 730 mmHg 58%
    17:00 +32°C° 0 mm 2 mps 730 mmHg 63%
    18:00 +30°C° 0 mm 1 mps 730 mmHg 68%
    19:00 +29°C° 0 mm 1 mps 730 mmHg 73%
    20:00 +28°C° 0 mm 1 mps 731 mmHg 75%
    21:00 +28°C° 0 mm 1 mps 731 mmHg 76%
    22:00 +28°C° 0 mm 1 mps 731 mmHg 78%
    23:00 +27°C° 0 mm 1 mps 731 mmHg 79%

    23 October, Wednesday

    Time Temperature Precipitation Wind Pressure Humidity
    00:00 +27°C° 0 mm 1 mps 731 mmHg 81%
    01:00 +27°C° 0 mm 1 mps 731 mmHg 82%
    02:00 +26°C° 0 mm 1 mps 731 mmHg 82%
    03:00 +26°C° 0 mm 1 mps 731 mmHg 82%
    04:00 +26°C° 0 mm 1 mps 731 mmHg 82%
    05:00 +26°C° 0.1 mm 1 mps 731 mmHg 82%
    06:00 +26°C° 0.1 mm 1 mps 732 mmHg 81%
    07:00 +26°C° 0.1 mm 1 mps 732 mmHg 81%
    08:00 +27°C° 0.1 mm 1 mps 732 mmHg 80%
    09:00 +27°C° 0.1 mm 1 mps 733 mmHg 79%
    10:00 +28°C° 0.1 mm 1 mps 733 mmHg 78%
    11:00 +29°C° 0 mm 1 mps 733 mmHg 74%
    12:00 +30°C° 0 mm 1 mps 732 mmHg 71%
    13:00 +31°C° 0 mm 1 mps 731 mmHg 67%
    14:00 +31°C° 0.1 mm 1 mps 731 mmHg 66%
    15:00 +31°C° 0.1 mm 1 mps 730 mmHg 64%
    16:00 +32°C° 0.1 mm 1 mps 730 mmHg 62%
    17:00 +30°C° 0 mm 1 mps 730 mmHg 67%
    18:00 +29°C° 0 mm 1 mps 730 mmHg 71%
    19:00 +28°C° 0 mm 1 mps 731 mmHg 75%
    20:00 +28°C° 0 mm 1 mps 731 mmHg 77%
    21:00 +27°C° 0 mm 1 mps 731 mmHg 78%
    22:00 +27°C° 0 mm 1 mps 732 mmHg 79%
    23:00 +27°C° 0 mm 1 mps 732 mmHg 81%

    24 October, Thursday

    Time Temperature Precipitation Wind Pressure Humidity
    00:00 +26°C° 0 mm 1 mps 731 mmHg 83%
    01:00 +26°C° 0 mm 1 mps 731 mmHg 84%
    02:00 +26°C° 0 mm 1 mps 731 mmHg 84%
    03:00 +26°C° 0 mm 1 mps 731 mmHg 84%
    04:00 +24°C° 0 mm 0 mps 731 mmHg 84%
    05:00 +24°C° 0 mm 0 mps 732 mmHg 84%
    06:00 +27°C° 0 mm 1 mps 732 mmHg 83%
    07:00 +27°C° 0 mm 1 mps 732 mmHg 83%
    08:00 +28°C° 0 mm 1 mps 733 mmHg 77%
    09:00 +30°C° 0 mm 1 mps 733 mmHg 71%
    10:00 +31°C° 0 mm 2 mps 733 mmHg 65%
    11:00 +32°C° 0.1 mm 2 mps 733 mmHg 60%
    12:00 +35°C° 0.1 mm 2 mps 732 mmHg 55%
    13:00 +35°C° 0.1 mm 1 mps 731 mmHg 50%
    14:00 +35°C° 0 mm 1 mps 730 mmHg 50%
    15:00 +35°C° 0 mm 1 mps 730 mmHg 49%
    16:00 +35°C° 0 mm 1 mps 729 mmHg 48%
    17:00 +34°C° 0 mm 1 mps 730 mmHg 52%
    18:00 +33°C° 0 mm 1 mps 730 mmHg 56%
    19:00 +31°C° 0 mm 1 mps 730 mmHg 60%
    20:00 +30°C° 0.1 mm 1 mps 731 mmHg 63%
    21:00 +30°C° 0.1 mm 2 mps 731 mmHg 66%
    22:00 +29°C° 0.1 mm 2 mps 732 mmHg 70%
    23:00 +28°C° 0 mm 2 mps 732 mmHg 73%
    Show more